FENGYUN 1C DEB, 31188

Orbit data source: Space-Track

FENGYUN 1C DEB, 31188 is space debris in SSO originally from a launch on Mon, 10 May 1999 UTC launched from the Taiyaun Space Center, China (TSC). Fengyun 1C debris stems from the Chinese weather satellite Fengyun-1C, which was intentionally destroyed by a Chinese anti-satellite missile in 2007. This event dramatically increased the amount of space debris, with thousands of trackable fragments posing hazards to satellites and human spaceflight. The Fengyun 1C debris cloud has become a focal point in discussions about space sustainability and the need for international regulations to prevent the creation of new debris.

Loading next visibility...
Identifier
31188, 1999-025BJS
Orbit
SSO
Country
Flag of CNCN / PRC
Related business
Manufacturer
Unknown
Mission
Spacecraft
Bus & Motor
Unknown
Mass
Unknown
Launch date (UTC)
1999-05-10 (27 years ago)
Launch vehicle
Unknown
Launch site
Taiyaun Space Center, China (TSC)
Object type
Payload
Rocket body
Debris
Shape & HBR
Unknown shape, 0.1 m
Radar Cross Section
Small (<0.1 m²)

Expand to show TLE details & history
Last TLE update: 1 day ago

TLE from 1 day ago
0 FENGYUN 1C DEB
1 31188U 99025BJS 26105.86352457  .00001661  00000-0  72026-3 0  9994
2 31188  98.7345 178.0263 0058045 248.8845 168.1434 14.24693367981030
Epoch: 2026-04-15T20:43Z
TLE epoch observation values (Epoch: 2026-04-15T20:43:28.522Z)
Latitude
56.24724°
Longitude
9.91755°
Altitude
859.726 km
Speed
7.407 km/s
True Right ascension
10h 59m 13s
True Declination
56° 05' 25"
Sunlit
Object was in daylight at epoch
Visualization orbit readout
Latitude
Unknown
Longitude
Unknown
Altitude
Unknown
Speed
Unknown
Apparent Right ascension
Unknown
Apparent Declination
Unknown
Sunlit
N/A
Visualization observer readout
Local Sidereal Time
03:41:38
Azimuth
Unknown
Elevation
Unknown
Doppler factor
Unknown
Orbital elements
Apogee altitude
848.381 km
Perigee altitude
764.973 km
Semi-major axis
7,184.814 km
Eccentricity
0.0058
Inclination
98.7345°
RAAN
178.0263°
Arg. of periapsis
248.8845°
True anomaly
168.2791°
Mean anomaly
168.1434°
Eccentric anomaly
168.21135°
Mean motion
3.56385 °/min
Orbital period
101.01 mins
BSTAR
0.00072026
Loading maneuver chart data...
Computing Atmospheric mass density...
Loading historical data...
Loading historical data...
Loading historical data...
Loading historical data...
Loading historical data...
Loading historical data...
Loading historical data...

Documentation

Showing up to 5 results
|